Regional Weather Roundup
Issued by NWS

Home | Current Version | Previous Version | Graphics & Text | Print | Product List | Glossary Off
Versions: 1 2 3 4 5 6 7 8 9 10 11 12 13 14 15 16 17 18 19 20 21 22 23 24 25 26 27 28 29 30 31 32 33 34 35 36 37 38 39 40 41 42 43 44 45 46 47 48 49 50

000
ASUS43 KLSX 271959
RWRMO

WEATHER SUMMARY FOR MISSOURI
NATIONAL WEATHER SERVICE SPRINGFIELD MO
200 PM CST SAT DEC 27 2014

NOTE: "FAIR" INDICATES FEW OR NO CLOUDS BELOW 12,000 FEET WITH NO
       SIGNIFICANT WEATHER AND/OR OBSTRUCTIONS TO VISIBILITY.
       CURRENT SKY AND/OR WEATHER CONDITIONS ARE NOT AVAILABLE FOR
       CHILLICOTHE AND FARMINGTON.

MOZ001>031-035>038-043-044-053-054-272100-
...NORTHERN AND WESTERN MISSOURI...

CITY           SKY/WX    TMP DP  RH WIND       PRES   REMARKS
KANSAS CTY INT PTSUNNY   30  22  72 NW10      30.21F WCI  21
KANSAS C DTWN  CLOUDY    32  22  66 W12       30.23S WCI  23
LEE`S SUMMIT   CLOUDY    32  23  69 W8        30.21F WCI  25
ST JOSEPH      CLOUDY    29  20  69 NW14      30.24F WCI  18
CHILLICOTHE      N/A     33  24  69 NW9       30.21F WCI  25
KIRKSVILLE     CLOUDY    32  25  75 NW10      30.16F WCI  24

$$
MOZ066>068-077>081-088>096-101>105-272100-
...SOUTHWEST MISSOURI...

CITY           SKY/WX    TMP DP  RH WIND       PRES   REMARKS
SPRINGFIELD    CLOUDY    34  31  88 NW9       30.17F WCI  27
JOPLIN         LGT SNOW  30  29  96 NW8       30.22F FOG     WCI  22

$$
MOZ032>034-039>042-045>050-055>058-069>072-272100-
...CENTRAL MISSOURI...

CITY           SKY/WX    TMP DP  RH WIND       PRES   REMARKS
COLUMBIA       CLOUDY    35  32  88 NW9       30.16F WCI  28
JEFFERSON CITY LGT SNOW  35  32  88 NW12      30.19R FOG     WCI  27
ROLLA          LGT RAIN  34  32  92 W10       30.15R FOG     WCI  26
SEDALIA        CLOUDY    35  28  75 NW12      30.20S WCI  27
OSAGE BEACH    CLOUDY    36  30  80 W6        30.18S

$$
MOZ051-052-059>065-272100-
...EAST CENTRAL MISSOURI...

CITY           SKY/WX    TMP DP  RH WIND       PRES   REMARKS
ST LOUIS INTL  LGT RAIN  41  35  79 NW9       30.14F
SPIRIT OF STL  CLOUDY    40  36  86 N5        30.12F
ST CHARLES     CLOUDY    39  35  86 NW6       30.14F

$$
MOZ072>076-082>087-097>100-106>115-272100-
...SOUTH CENTRAL AND SOUTHEAST MISSOURI...

CITY           SKY/WX    TMP DP  RH WIND       PRES   REMARKS
CAPE GIRARDEAU CLOUDY    50  49  96 W5        30.10F
FARMINGTON     CLOUDY    41  37  87 SE10      30.13F
POPLAR BLUFF   CLOUDY    52  47  83 N9        30.08F
WEST PLAINS    LGT RAIN  39  35  86 NW6       30.13F

$$


USA.gov is the U.S. government's official web portal to all federal, state and local government web resources and services.